• In Russia
  • List of Countries
  • For 7 days
  • Water Temperature
  • Satellite Maps
  • Weather Map
  • Weather Widgets
  • user-avatar
    Login

    Hourly Weather Ansfelden

    Today, 23 February, Saturday

    Time Temperature Precipitation Wind Pressure Humidity
    00:00 0°C° 0 mm 1 mps 752 mmHg 73%
    01:00 -3°C° 0 mm 2 mps 753 mmHg 74%
    02:00 -3°C° 0 mm 2 mps 753 mmHg 72%
    03:00 -3°C° 0 mm 2 mps 753 mmHg 70%
    04:00 -1°C° 0 mm 1 mps 754 mmHg 68%
    05:00 -1°C° 0 mm 1 mps 754 mmHg 66%
    06:00 -2°C° 0 mm 1 mps 754 mmHg 65%
    07:00 -2°C° 0 mm 1 mps 755 mmHg 63%
    08:00 -1°C° 0 mm 1 mps 754 mmHg 53%
    09:00 -2°C° 0 mm 2 mps 754 mmHg 44%
    10:00 -1°C° 0 mm 2 mps 754 mmHg 35%
    11:00 +1°C° 0 mm 2 mps 754 mmHg 32%
    12:00 +2°C° 0 mm 2 mps 753 mmHg 30%
    13:00 +3°C° 0 mm 2 mps 754 mmHg 27%
    14:00 +3°C° 0 mm 2 mps 753 mmHg 28%
    15:00 +4°C° 0 mm 1 mps 753 mmHg 29%
    16:00 +4°C° 0 mm 1 mps 752 mmHg 30%
    17:00 +3°C° 0 mm 1 mps 752 mmHg 36%
    18:00 +2°C° 0 mm 1 mps 753 mmHg 41%
    19:00 -1°C° 0 mm 2 mps 753 mmHg 46%
    20:00 -2°C° 0 mm 2 mps 753 mmHg 47%
    21:00 -2°C° 0 mm 2 mps 753 mmHg 47%
    22:00 0°C° 0 mm 1 mps 753 mmHg 48%
    23:00 0°C° 0 mm 1 mps 753 mmHg 47%

    Tomorrow, 24 February, Sunday

    Time Temperature Precipitation Wind Pressure Humidity
    00:00 0°C° 0 mm 1 mps 753 mmHg 46%
    01:00 0°C° 0 mm 1 mps 753 mmHg 45%
    02:00 0°C° 0 mm 1 mps 753 mmHg 45%
    03:00 0°C° 0 mm 1 mps 752 mmHg 44%
    04:00 0°C° 0 mm 1 mps 752 mmHg 43%
    05:00 0°C° 0 mm 1 mps 752 mmHg 42%
    06:00 0°C° 0 mm 1 mps 752 mmHg 42%
    07:00 0°C° 0 mm 1 mps 752 mmHg 41%
    08:00 +1°C° 0 mm 1 mps 752 mmHg 37%
    09:00 +3°C° 0 mm 1 mps 752 mmHg 32%
    10:00 +5°C° 0 mm 1 mps 752 mmHg 28%
    11:00 +6°C° 0 mm 1 mps 752 mmHg 28%
    12:00 +7°C° 0 mm 1 mps 751 mmHg 28%
    13:00 +9°C° 0 mm 1 mps 751 mmHg 28%
    14:00 +8°C° 0 mm 0 mps 751 mmHg 33%
    15:00 +8°C° 0 mm 0 mps 751 mmHg 38%
    16:00 +7°C° 0 mm 0 mps 750 mmHg 43%
    17:00 +6°C° 0 mm 0 mps 751 mmHg 46%
    18:00 +4°C° 0 mm 0 mps 751 mmHg 49%
    19:00 +4°C° 0 mm 1 mps 752 mmHg 52%
    20:00 +3°C° 0 mm 1 mps 752 mmHg 54%
    21:00 +3°C° 0 mm 1 mps 752 mmHg 56%
    22:00 +3°C° 0 mm 1 mps 752 mmHg 58%
    23:00 +3°C° 0 mm 1 mps 752 mmHg 59%

    Day after tomorrow, 25 February, Monday

    Time Temperature Precipitation Wind Pressure Humidity
    00:00 +3°C° 0 mm 1 mps 752 mmHg 60%
    01:00 +3°C° 0 mm 1 mps 752 mmHg 61%
    02:00 +3°C° 0 mm 1 mps 752 mmHg 63%
    03:00 +3°C° 0 mm 1 mps 751 mmHg 64%
    04:00 +2°C° 0 mm 1 mps 751 mmHg 66%
    05:00 +2°C° 0 mm 1 mps 751 mmHg 67%
    06:00 +2°C° 0 mm 1 mps 751 mmHg 68%
    07:00 +2°C° 0 mm 1 mps 751 mmHg 69%
    08:00 +3°C° 0 mm 0 mps 751 mmHg 64%
    09:00 +5°C° 0 mm 0 mps 751 mmHg 59%
    10:00 +7°C° 0 mm 0 mps 751 mmHg 55%
    11:00 +9°C° 0 mm 0 mps 751 mmHg 53%
    12:00 +10°C° 0 mm 0 mps 751 mmHg 52%
    13:00 +11°C° 0 mm 0 mps 751 mmHg 51%
    14:00 +11°C° 0 mm 0 mps 751 mmHg 54%
    15:00 +12°C° 0 mm 1 mps 750 mmHg 57%
    16:00 +12°C° 0 mm 1 mps 750 mmHg 60%
    17:00 +11°C° 0 mm 1 mps 750 mmHg 65%
    18:00 +9°C° 0 mm 1 mps 750 mmHg 70%
    19:00 +7°C° 0 mm 1 mps 750 mmHg 75%
    20:00 +7°C° 0 mm 1 mps 750 mmHg 77%
    21:00 +6°C° 0 mm 1 mps 750 mmHg 79%
    22:00 +6°C° 0 mm 1 mps 751 mmHg 81%
    23:00 +5°C° 0 mm 1 mps 750 mmHg 82%

    26 February, Tuesday

    Time Temperature Precipitation Wind Pressure Humidity
    00:00 +5°C° 0 mm 1 mps 750 mmHg 82%
    01:00 +5°C° 0 mm 1 mps 750 mmHg 83%
    02:00 +4°C° 0 mm 1 mps 750 mmHg 84%
    03:00 +4°C° 0 mm 1 mps 750 mmHg 85%
    04:00 +4°C° 0 mm 1 mps 750 mmHg 85%
    05:00 +4°C° 0 mm 1 mps 750 mmHg 86%
    06:00 +4°C° 0 mm 1 mps 750 mmHg 86%
    07:00 +4°C° 0 mm 1 mps 749 mmHg 86%
    08:00 +5°C° 0 mm 1 mps 749 mmHg 81%
    09:00 +6°C° 0 mm 2 mps 749 mmHg 75%
    10:00 +8°C° 0 mm 2 mps 749 mmHg 70%
    11:00 +9°C° 0 mm 2 mps 748 mmHg 66%
    12:00 +10°C° 0 mm 2 mps 748 mmHg 62%
    13:00 +12°C° 0 mm 3 mps 748 mmHg 58%
    14:00 +12°C° 0 mm 3 mps 748 mmHg 59%
    15:00 +12°C° 0 mm 3 mps 747 mmHg 60%
    16:00 +12°C° 0 mm 3 mps 747 mmHg 61%
    17:00 +10°C° 0 mm 3 mps 748 mmHg 66%
    18:00 +9°C° 0 mm 2 mps 748 mmHg 72%
    19:00 +7°C° 0 mm 2 mps 748 mmHg 78%
    20:00 +7°C° 0 mm 2 mps 748 mmHg 79%
    21:00 +6°C° 0 mm 2 mps 748 mmHg 80%
    22:00 +6°C° 0 mm 2 mps 749 mmHg 81%
    23:00 +6°C° 0 mm 2 mps 748 mmHg 81%

    27 February, Wednesday

    Time Temperature Precipitation Wind Pressure Humidity
    00:00 +5°C° 0 mm 2 mps 748 mmHg 81%
    01:00 +5°C° 0 mm 2 mps 748 mmHg 81%
    02:00 +6°C° 0 mm 1 mps 748 mmHg 80%
    03:00 +5°C° 0 mm 1 mps 748 mmHg 80%
    04:00 +5°C° 0 mm 1 mps 748 mmHg 79%
    05:00 +5°C° 0 mm 1 mps 748 mmHg 79%
    06:00 +5°C° 0 mm 1 mps 748 mmHg 79%
    07:00 +4°C° 0 mm 1 mps 748 mmHg 78%
    08:00 +6°C° 0 mm 1 mps 748 mmHg 72%
    09:00 +8°C° 0 mm 1 mps 747 mmHg 65%
    10:00 +10°C° 0 mm 1 mps 747 mmHg 58%
    11:00 +12°C° 0 mm 1 mps 747 mmHg 54%
    12:00 +13°C° 0 mm 1 mps 746 mmHg 50%
    13:00 +15°C° 0 mm 1 mps 746 mmHg 46%
    14:00 +15°C° 0 mm 1 mps 745 mmHg 47%
    15:00 +15°C° 0 mm 1 mps 745 mmHg 48%
    16:00 +15°C° 0 mm 1 mps 744 mmHg 50%
    17:00 +13°C° 0 mm 1 mps 744 mmHg 55%
    18:00 +11°C° 0 mm 1 mps 744 mmHg 60%
    19:00 +10°C° 0 mm 1 mps 744 mmHg 65%
    20:00 +9°C° 0 mm 1 mps 744 mmHg 67%
    21:00 +9°C° 0 mm 1 mps 744 mmHg 69%
    22:00 +8°C° 0 mm 1 mps 744 mmHg 71%
    23:00 +8°C° 0 mm 1 mps 744 mmHg 73%

    28 February, Thursday

    Time Temperature Precipitation Wind Pressure Humidity
    00:00 +7°C° 0 mm 1 mps 743 mmHg 75%
    01:00 +6°C° 0 mm 2 mps 743 mmHg 76%
    02:00 +5°C° 0 mm 2 mps 743 mmHg 78%
    03:00 +5°C° 0 mm 2 mps 742 mmHg 80%
    04:00 +5°C° 0 mm 2 mps 742 mmHg 82%
    05:00 +5°C° 0 mm 2 mps 742 mmHg 83%
    06:00 +5°C° 0 mm 2 mps 742 mmHg 84%
    07:00 +3°C° 0 mm 3 mps 742 mmHg 85%
    08:00 +5°C° 0 mm 4 mps 741 mmHg 77%
    09:00 +7°C° 0 mm 6 mps 741 mmHg 68%
    10:00 +9°C° 0 mm 7 mps 741 mmHg 60%
    11:00 +11°C° 0 mm 8 mps 741 mmHg 58%
    12:00 +12°C° 0 mm 8 mps 740 mmHg 56%
    13:00 +13°C° 0 mm 8 mps 740 mmHg 53%
    14:00 +13°C° 0 mm 8 mps 739 mmHg 55%
    15:00 +13°C° 0 mm 8 mps 739 mmHg 56%
    16:00 +14°C° 0 mm 7 mps 739 mmHg 58%
    17:00 +11°C° 0 mm 7 mps 739 mmHg 63%
    18:00 +10°C° 0 mm 6 mps 740 mmHg 68%
    19:00 +9°C° 0 mm 5 mps 741 mmHg 74%
    20:00 +8°C° 0 mm 5 mps 741 mmHg 76%
    21:00 +7°C° 0 mm 5 mps 741 mmHg 78%
    22:00 +7°C° 0 mm 5 mps 741 mmHg 81%
    23:00 +6°C° 0 mm 5 mps 741 mmHg 81%
    Show more